Content
SEND FEEDBACK

Daily
Averages
Monthly
Summary
United States of America

ASH MOUNTAIN, CALIFORNIA


Home > North America > United States > California
Elevation: 2078 feet     Latitude: 36 29N     Longitude: 118 50W

WEATHER
 
SELECT A DAY
Number of Records: 447,536;   Date Range: 1/1/95 - 9/16/14
 
SHARE

PRINT THIS DATA

[ ← Previous Day ]
WEATHER ALMANAC - FEBRUARY 13, 2013
[ Next Day → ]
[ °C ]   °F
Weather ElementAverageHighLow
Temperature46.1 °F62.6 °F (2:15 pm)32 °F (5:15 am)
Dewpoint34.7 °F39.2 °F (12:15 pm)26.6 °F (5:55 am)
Humidity66.9 %87 % (12:55 am)39 % (2:55 pm)
Barometer30.29 in30.36 in (8:15 am)30.23 in (5:15 pm)
Wind Speed4.9 mph8.1 mph (5:15 am)
Weather ElementAverage
Visibility9.9 mi
Wind DirectionSSE (162.4 °)

Weather ElementTotal
Precipitation---
Heating Degree Days17.7 (Base 65)
Averaged from 71 records on February 13, 2013
WEATHER CONDITIONS BREAKOUT
WIND DIRECTION BREAKOUT
WEATHER BY HOUR - FEBRUARY 13, 2013
[ °C ]   °F
Local TimeTemperatureDewpointHumidityBarometerVisibilityWind DirectionWind SpeedGust SpeedPrecipitationEventsConditions
12:35 AM37.4 °F32.0 °F81 %30.34 in10.0 miESE (110°)5.8 mphClear
12:55 AM37.4 °F33.8 °F87 %30.33 in10.0 miEast (90°)4.6 mphClear
1:15 AM39.2 °F32.0 °F75 %30.33 in10.0 miCalmClear
1:35 AM35.6 °F30.2 °F81 %30.33 in10.0 miCalmClear
1:55 AM33.8 °F28.4 °F81 %30.33 in10.0 miSouth (180°)3.5 mphClear
2:15 AM33.8 °F28.4 °F81 %30.33 in10.0 miCalmClear
2:35 AM33.8 °F30.2 °F87 %30.32 in10.0 miCalmClear
2:55 AM33.8 °F28.4 °F81 %30.32 in10.0 miSSE (150°)4.6 mphClear
3:15 AM33.8 °F28.4 °F81 %30.32 in10.0 miSSE (150°)4.6 mphClear
3:35 AM33.8 °F28.4 °F81 %30.32 in10.0 miSE (140°)4.6 mphClear
3:55 AM33.8 °F28.4 °F81 %30.32 in10.0 miSE (130°)4.6 mphClear
4:15 AM33.8 °F28.4 °F81 %30.32 in10.0 miSE (130°)6.9 mphClear
4:35 AM33.8 °F28.4 °F81 %30.32 in10.0 miSE (130°)6.9 mphClear
4:55 AM33.8 °F28.4 °F81 %30.32 in10.0 miESE (120°)6.9 mphClear
5:15 AM32.0 °F28.4 °F87 %30.32 in10.0 miSE (130°)8.1 mphClear
5:35 AM33.8 °F28.4 °F81 %30.32 in10.0 miSE (130°)6.9 mphClear
5:55 AM32.0 °F26.6 °F80 %30.32 in10.0 miSE (130°)6.9 mphClear
6:15 AM32.0 °F26.6 °F80 %30.33 in10.0 miSE (140°)4.6 mphClear
6:35 AM33.8 °F28.4 °F81 %30.33 in10.0 miSE (130°)4.6 mphClear
6:55 AM33.8 °F28.4 °F81 %30.34 in10.0 miCalmClear
7:15 AM33.8 °F28.4 °F81 %30.34 in10.0 miCalmClear
7:35 AM33.8 °F28.4 °F81 %30.35 in10.0 miSE (140°)3.5 mphClear
7:55 AM37.4 °F33.8 °F87 %30.35 in10.0 miSE (140°)5.8 mphClear
8:15 AM42.8 °F35.6 °F76 %30.36 in10.0 miSE (140°)3.5 mphClear
8:35 AM44.6 °F35.6 °F71 %30.35 in10.0 miSSE (160°)5.8 mphClear
8:55 AM46.4 °F35.6 °F66 %30.36 in10.0 miSouth (180°)5.8 mphClear
9:15 AM48.2 °F35.6 °F62 %30.36 in10.0 miSouth (180°)5.8 mphClear
9:35 AM50.0 °F35.6 °F58 %30.36 in10.0 miSSW (210°)6.9 mphClear
9:55 AM51.8 °F37.4 °F58 %30.35 in10.0 miSouth (190°)6.9 mphClear
10:15 AM51.8 °F35.6 °F54 %30.35 in10.0 miWSW (240°)5.8 mphClear
10:35 AM53.6 °F37.4 °F54 %30.35 in10.0 miSouth (190°)4.6 mphClear
10:55 AM53.6 °F35.6 °F51 %30.35 in10.0 miWSW (250°)3.5 mphClear
11:15 AM55.4 °F37.4 °F51 %30.34 in10.0 miWSW (240°)4.6 mphClear
11:35 AM55.4 °F37.4 °F51 %30.34 in10.0 miWest (280°)4.6 mphClear
11:55 AM57.2 °F37.4 °F48 %30.33 in10.0 miWest (280°)6.9 mphClear
12:15 PM57.2 °F39.2 °F51 %30.31 in10.0 miWNW (300°)3.5 mphClear
12:35 PM59.0 °F37.4 °F45 %30.30 in10.0 miWest (260°)4.6 mphClear
12:55 PM59.0 °F39.2 °F48 %30.29 in10.0 miCalmClear
1:15 PM59.0 °F37.4 °F45 %30.28 in10.0 miWSW (250°)6.9 mphClear
1:35 PM60.8 °F37.4 °F42 %30.27 in10.0 miNNW (330°)5.8 mphClear
1:55 PM60.8 °F37.4 °F42 %30.27 in10.0 miCalmClear
2:15 PM62.6 °F39.2 °F42 %30.26 in10.0 miNW (310°)4.6 mphClear
2:35 PM60.8 °F37.4 °F42 %30.26 in10.0 miNW (310°)5.8 mphClear
2:55 PM62.6 °F37.4 °F39 %30.25 in10.0 miWNW (300°)5.8 mphClear
3:15 PM62.6 °F37.4 °F39 %30.24 in10.0 miNW (310°)8.1 mphClear
3:35 PM62.6 °F37.4 °F39 %30.24 in10.0 miNW (310°)5.8 mphClear
3:55 PM60.8 °F37.4 °F42 %30.24 in10.0 miWest (270°)6.9 mphClear
4:15 PM60.8 °F37.4 °F42 %30.24 in10.0 miWest (280°)6.9 mphClear
4:35 PM60.8 °F37.4 °F42 %30.24 in10.0 miWNW (290°)6.9 mphClear
4:55 PM59.0 °F39.2 °F48 %30.24 in10.0 miWest (270°)5.8 mphClear
5:15 PM57.2 °F39.2 °F51 %30.23 in10.0 miWest (270°)4.6 mphClear
5:35 PM55.4 °F39.2 °F54 %30.23 in9.0 miWSW (250°)3.5 mphClear
5:55 PM53.6 °F39.2 °F58 %30.24 in9.0 miWSW (240°)4.6 mphClear
6:15 PM51.8 °F39.2 °F62 %30.24 in10.0 miSW (220°)5.8 mphClear
6:35 PM48.2 °F39.2 °F71 %30.24 in10.0 miSW (220°)5.8 mphClear
6:55 PM48.2 °F37.4 °F66 %30.24 in10.0 miSSW (210°)3.5 mphClear
7:15 PM48.2 °F39.2 °F71 %30.24 in10.0 miESE (120°)4.6 mphClear
7:35 PM44.6 °F37.4 °F76 %30.24 in10.0 miESE (110°)5.8 mphClear
7:55 PM44.6 °F37.4 °F76 %30.24 in10.0 miEast (90°)3.5 mphClear
8:15 PM44.6 °F37.4 °F76 %30.25 in10.0 miEast (100°)4.6 mphClear
8:35 PM42.8 °F37.4 °F81 %30.25 in10.0 miEast (100°)4.6 mphClear
8:55 PM42.8 °F37.4 °F81 %30.25 in10.0 miEast (100°)5.8 mphClear
9:15 PM42.8 °F35.6 °F76 %30.25 in8.0 miEast (100°)4.6 mphClear
9:35 PM42.8 °F35.6 °F76 %30.25 in10.0 miEast (100°)6.9 mphClear
9:55 PM42.8 °F37.4 °F81 %30.25 in10.0 miESE (110°)8.1 mphClear
10:15 PM42.8 °F37.4 °F81 %30.25 in10.0 miEast (100°)5.8 mphClear
10:35 PM42.8 °F37.4 °F81 %30.25 in10.0 miEast (100°)5.8 mphClear
10:55 PM42.8 °F35.6 °F76 %30.25 in10.0 miEast (100°)6.9 mphClear
11:15 PM42.8 °F35.6 °F76 %30.25 in10.0 miEast (100°)5.8 mphClear
11:35 PM42.8 °F35.6 °F76 %30.25 in10.0 miEast (90°)5.8 mphClear
11:55 PM42.8 °F35.6 °F76 %30.24 in10.0 miEast (100°)5.8 mphClear
Hourly data recorded from KPTV, located miles away from Ash Mountain, California







STORIES FROM OUR PARTNERS